Location: Huberhof
(49.2050°N, 7.4980°E)
Time: 05:20:56
(UTC+00:00)

USA 308 - Pass Details

Date: 29 October 2020
Orbit: 571 x 578 km, 54.0° (Epoch: 23 November)

Event Time Altitude Azimuth Distance (km) Brightness Sun altitude
Rises 18:44:41 0° 294° (WNW) 2,786 7.6 -25.2°
Reaches altitude 10° 18:47:07 10° 284° (WNW) 1,883 6.6 -25.6°
Maximum altitude 18:50:53 31° 223° (SW) 1,022 4.4 -26.2°
Enters shadow 18:51:17 30° 212° (SSW) 1,035 4.3 -26.3°
